Regional Weather Roundup
Issued by NWS Charleston, SC

Current Version | Previous Version | Text Only | Print | Product List | Glossary Off
Versions: 1 2 3 4 5 6 7 8 9 10 11 12 13 14 15 16 17 18 19 20 21 22 23 24 25 26 27 28 29 30 31 32 33 34 35 36 37 38 39 40 41 42 43 44 45 46 47 48 49 50
622 ASUS42 KCHS 301413 RWRCHS REGIONAL WEATHER ROUNDUP NATIONAL WEATHER SERVICE CHARLESTON SC 1000 AM EDT FRI SEP 30 2016 NOTE: "FAIR" INDICATES FEW OR NO CLOUDS BELOW 12,000 FEET WITH NO SIGNIFICANT WEATHER AND/OR OBSTRUCTIONS TO VISIBILITY. NOT ALL STATIONS ARE QUALITY CONTROLLED. USE DATA WITH CAUTION... ESPECIALLY DEWPOINT OBSERVATIONS. SCZ027-030-031-034>040-042>050-301500- ...SOUTHEAST SOUTH CAROLINA... CITY SKY/WX TMP DP RH WIND PRES REMARKS N CHARLESTON MOSUNNY 78 70 76 NW6 29.99S WATERFRONT PRK N/A 78 73 84 CALM 29.97S MOUNT PLEASANT FAIR 81 75 83 SW3 29.99S JOHNS ISLAND FAIR 79 73 83 CALM 30.00R PINOPOLIS N/A 75 70 83 W6 29.92R MONCKS CORNER FAIR 73 70 88 CALM 30.00R SUMMERVILLE FAIR 72 72 100 CALM 30.01S BEAUFORT MCAS MOSUNNY 76 61 59 NW6 30.01R BEAUFORT ARPT FAIR 73 63 68 NW5 30.01R HILTON HEAD IS NOT AVBL WALTERBORO SUNNY 73 61 64 W3 30.02S ALLENDALE FAIR 72 57 60 CALM 30.02R ...SOUTHERN MIDLANDS AND PEE DEE... CITY SKY/WX TMP DP RH WIND PRES REMARKS GEORGETOWN FAIR 77 72 83 W3 30.00R KINGSTREE FAIR 77 68 73 SW5 30.00R ORANGEBURG SUNNY 73 53 49 CALM 30.01R BARNWELL NOT AVBL AIKEN FAIR 68 52 56 W3 30.06R MANNING FAIR 72 63 73 CALM 30.00S COLUMBIA SUNNY 71 55 56 CALM 30.00R SUMTER SUNNY 73 58 58 W3 29.98R FLORENCE SUNNY 77 70 79 W5 29.99S MYRTLE BEACH PTSUNNY 77 66 69 VRB7 30.01R N MYRTLE BEACH HVY RAIN 78 74 87 SE9 29.98S VSB 1 $$ GAZ063-065-086>088-099>101-113>116-118-119-134>141-150-301500- ...SOUTHEAST GEORGIA... CITY SKY/WX TMP DP RH WIND PRES REMARKS SAVANNAH ARPT MOSUNNY 73 56 54 NW6 30.03R HUNTER AAF SUNNY 74 64 69 NW3 30.00R FORT STEWART SUNNY 72 57 59 CALM 30.02R STATESBORO MOSUNNY 71 58 65 NW6 30.04R SYLVANIA NOT AVBL CLAXTON FAIR 70 58 66 W6 30.04S ...CSRA...CENTRAL AND FAR SOUTHEAST GEORGIA... CITY SKY/WX TMP DP RH WIND PRES REMARKS THOMSON SUNNY 67 54 63 CALM 30.08R AUGUSTA-BUSH SUNNY 67 51 56 CALM 30.03R AUGUSTA-DANIEL SUNNY 69 48 47 NW5 30.04R SWAINSBORO FAIR 66 54 63 CALM 30.06R VIDALIA SUNNY 72 55 56 NW3 30.06R EASTMAN FAIR 67 43 41 N6 30.09R HAZLEHURST FAIR 70 55 58 CALM 30.06R ALMA SUNNY 70 53 54 N6 30.05R WAYCROSS SUNNY 73 57 56 CALM 30.06R JESUP FAIR 73 61 64 NE3 30.05R BAXLEY FAIR 70 55 60 NW5 30.05R BRUNSWICK SUNNY 73 63 68 NW5 30.05R SAINT SIMONS SUNNY 76 58 53 N7 30.03R $$ SCZ027-028-034-036>038-045-046-048>050-GAZ119-141-301500- ...LAKE AND SUPPLEMENTAL COASTAL OBSERVATIONS... STATION/POSITION TIME TEMP WIND PRES WAVE SWELL AIR SEA DIR/SP/G HT/PER HT/PER/DIR (UTC) (F) (DEG/KT/KT) (MB) (FT/S) (FT/S/D) WINYAH BAY 1245 76 210/ 8 1014.0 LAKE MURRAY 1320 70 230/ 4/ 6 1015.2 ACE BASIN NERRS 1245 70 330/ 1 1016.0 FORT PULASKI 1342 72 81 330/ 5/ 7 1016.9R SAPELO ISLAND 1300 72 340/ 5 1016.0 $$ ANZ835-935-AMZ111-154-330-350-352-354-370-450-454-472-301500- ...C-MAN AND BUOY OBSERVATIONS... STATION/POSITION TIME TEMP WIND PRES WAVE SWELL AIR SEA DIR/SP/G HT/PER HT/PER/DIR (UTC) (F) (DEG/KT/KT) (MB) (FT/S) (FT/S/D) BUOY 41004 1350 81 82 210/ 12/ 14 1014.8S 3/ 5 2/100/10 BUOY 41008 1350 77 82 310/ 6/ 8 1016.2R 2/ 5 2/170/ 5 FOLLY BEACH CMAN 1400 79 280/ 3/ 5 1015.7R CAPERS NEARSHORE 1308 80 81 180/ 6/ 10 1014.9S FRIPP NEARSHORE 1308 75 81 350/ 4/ 8 1015.8R STATION/POSITION TIME TEMP WIND PRES WAVE SWELL AIR SEA DIR/SP/G HT/PER HT/PER/DIR (UTC) (F) (DEG/KT/KT) (MB) (FT/S) (FT/S/D) 5E ST. MARYS GA 1401 82 N/A 2/11 FRYING PAN BUOY 1350 82 82 150/ 12/ 16 1015.9R 4/ 5 2/100/10 BUOY 41025 1350 80 77 160/ 8/ 10 1018.0R 4/10 3/ 50/10 CAPE LOOKOUT NC 1400 80 180/ 6/ 6 1017.4R BUOY 41002 1350 80 83 190/ 10/ 14 1019.1R 4/10 3/ 30/10 BUOY 41010 NOT AVBL ST AUGUSTINE FL 1400 78 82 240/ 2/ 3 1018.1R $$

USA.gov is the U.S. government's official web portal to all federal, state and local government web resources and services.